Simultaneous Nadir Overpasses (SNOs) Predictions

Prediction of SNOs between NOAA-15 and METOP-C Satellite Orbit:

Table of predicted SNOs for the next 14.0 days since TLE Epoch: 5/11/2024
Index Date (NOAA-15) Time (NOAA-15) Lat,Lon (NOAA-15) SZA (NOAA-15 ) Date (METOP-C) Time (METOP-C) Lat,Lon (METOP-C) SZA (METOP-C ) Distance(km) Time Diff (sec)
1 05/15/2024 11:59:24 81.05, 38.67 64.11 05/15/2024 11:58:17 81.05, 38.57 64.07 1.65 67
2 05/15/2024 12:49:56 -81.05,-154.10 115.91 05/15/2024 12:48:57 -81.05,-154.04 115.93 1.20 59
3 05/15/2024 13:40:24 81.05, 13.40 64.09 05/15/2024 13:39:38 81.05, 13.44 64.08 1.17 46
4 05/15/2024 14:30:56 -81.05,-179.37 115.93 05/15/2024 14:30:19 -81.04,-179.54 115.97 3.18 37
5 05/15/2024 15:21:24 81.05, -11.87 64.07 05/15/2024 15:21:00 81.05, -12.06 64.04 3.29 24
6 05/15/2024 16:11:56 -81.05, 155.37 115.95 05/15/2024 16:11:40 -81.05, 155.33 115.96 0.75 16
7 05/15/2024 17:02:24 81.05, -37.14 64.06 05/15/2024 17:02:21 81.06, -37.19 64.06 1.24 3
8 05/15/2024 17:52:56 -81.05, 130.10 115.96 05/15/2024 17:53:01 -81.06, 130.20 115.95 1.69 5
9 05/15/2024 18:43:24 81.05, -62.41 64.04 05/15/2024 18:43:42 81.06, -62.33 64.07 2.22 18
10 05/15/2024 19:33:56 -81.05, 104.84 115.98 05/15/2024 19:34:23 -81.05, 104.69 115.99 2.49 27
11 05/15/2024 20:24:24 81.05, -87.68 64.02 05/15/2024 20:25:04 81.06, -87.83 64.03 2.66 40
12 05/15/2024 21:14:56 -81.06, 79.57 116.00 05/15/2024 21:15:44 -81.06, 79.56 115.98 0.49 48
13 05/15/2024 22:05:24 81.05,-112.96 64.00 05/15/2024 22:06:25 81.07,-112.96 64.04 1.58 61



Historial Predications of SNOs between NOAA-15 and METOP-C
